Terug naar catalogus

METEOR 2-2

ActiefWeerPO
NORAD 9661·PAYLOAD·🇷🇺 Russia

Gelanceerd Jan 6, 1977 vanaf Plesetsk Cosmodrome

Loading…

Volgende Passages (komende 24 uur)

TLE

VersSource: Space-Track

Epoch: Sep 14, 2026, 14:12 UTC

1 09661U 77002A   26257.59228274  .00000005  00000-0 -48370-5 0  9992
2 09661  81.2685   8.0087 0011650 101.1841 259.0637 14.04242858542883

Volg METEOR 2-2 in realtime met AllMySat

Download on the App Store